Time,TemperatureF,DewpointF,PressureIn,WindDirection,WindDirectionDegrees,WindSpeedMPH,WindSpeedGustMPH,Humidity,HourlyPrecipIn,Conditions,Clouds,dailyrainin,SoftwareType,DateUTC
2013-01-11 00:05:00,37.3,36.0,30.08,SE,130,9.0,14.0,94,0.04,,,0.00,weatherlink.com 1.10,2013-01-11 05:05:00,
2013-01-11 00:20:00,37.5,35.0,30.07,SE,131,9.0,12.0,92,0.04,,,0.00,weatherlink.com 1.10,2013-01-11 05:20:00,
2013-01-11 00:35:00,37.9,36.0,30.06,SE,146,8.0,14.0,91,0.04,,,0.01,weatherlink.com 1.10,2013-01-11 05:35:00,
2013-01-11 00:50:00,38.1,36.0,30.06,SE,128,6.0,13.0,91,0.04,,,0.01,weatherlink.com 1.10,2013-01-11 05:50:00,
2013-01-11 01:05:00,38.4,36.0,30.05,SSE,153,7.0,12.0,91,0.01,,,0.01,weatherlink.com 1.10,2013-01-11 06:05:00,
2013-01-11 01:20:00,38.9,37.0,30.04,SE,142,9.0,12.0,91,0.01,,,0.01,weatherlink.com 1.10,2013-01-11 06:20:00,
2013-01-11 01:35:00,39.6,38.0,30.03,SE,139,10.0,14.0,92,0.00,,,0.01,weatherlink.com 1.10,2013-01-11 06:35:00,
2013-01-11 01:53:00,39.7,38.0,30.02,SSE,153,6.0,11.0,92,0.01,,,0.02,weatherlink.com 1.10,2013-01-11 06:53:00,
2013-01-11 02:05:00,39.7,38.0,30.01,ESE,116,7.0,10.0,93,0.01,,,0.02,weatherlink.com 1.10,2013-01-11 07:05:00,
2013-01-11 02:20:00,39.5,38.0,29.99,ESE,111,9.0,11.0,93,0.01,,,0.02,weatherlink.com 1.10,2013-01-11 07:20:00,
2013-01-11 02:35:00,39.3,38.0,29.99,SSE,148,8.0,13.0,94,0.01,,,0.02,weatherlink.com 1.10,2013-01-11 07:35:00,
2013-01-11 02:50:00,39.0,38.0,29.98,SE,143,8.0,12.0,94,0.00,,,0.02,weatherlink.com 1.10,2013-01-11 07:50:00,
2013-01-11 03:05:00,39.1,38.0,29.97,SE,145,8.0,13.0,95,0.00,,,0.02,weatherlink.com 1.10,2013-01-11 08:05:00,
2013-01-11 03:20:00,39.3,38.0,29.95,ESE,119,9.0,12.0,95,0.00,,,0.02,weatherlink.com 1.10,2013-01-11 08:20:00,
2013-01-11 03:36:00,39.6,38.0,29.95,SSE,147,9.0,13.0,95,0.00,,,0.02,weatherlink.com 1.10,2013-01-11 08:36:00,
2013-01-11 03:51:00,39.6,38.0,29.94,SE,131,9.0,14.0,95,0.01,,,0.03,weatherlink.com 1.10,2013-01-11 08:51:00,
2013-01-11 04:06:00,39.8,39.0,29.92,SE,138,8.0,13.0,95,0.02,,,0.04,weatherlink.com 1.10,2013-01-11 09:06:00,
2013-01-11 04:21:00,40.2,39.0,29.92,SE,135,8.0,13.0,95,0.02,,,0.04,weatherlink.com 1.10,2013-01-11 09:21:00,
2013-01-11 04:38:00,40.9,40.0,29.91,SE,146,6.0,11.0,95,0.04,,,0.06,weatherlink.com 1.10,2013-01-11 09:38:00,
2013-01-11 04:51:00,41.6,40.0,29.90,SSE,148,8.0,11.0,95,0.05,,,0.08,weatherlink.com 1.10,2013-01-11 09:51:00,
2013-01-11 05:06:00,42.0,41.0,29.90,SSE,152,13.0,13.0,95,0.10,,,0.14,weatherlink.com 1.10,2013-01-11 10:06:00,
2013-01-11 05:21:00,42.2,41.0,29.89,South,178,10.0,15.0,95,0.12,,,0.16,weatherlink.com 1.10,2013-01-11 10:21:00,
2013-01-11 05:36:00,42.2,41.0,29.88,SSE,153,6.0,15.0,96,0.14,,,0.20,weatherlink.com 1.10,2013-01-11 10:36:00,
2013-01-11 05:51:00,42.5,42.0,29.88,SSE,162,12.0,13.0,96,0.15,,,0.23,weatherlink.com 1.10,2013-01-11 10:51:00,
2013-01-11 06:06:00,43.2,42.0,29.86,SE,144,7.0,13.0,97,0.12,,,0.26,weatherlink.com 1.10,2013-01-11 11:06:00,
2013-01-11 06:21:00,43.9,43.0,29.85,SSE,167,9.0,15.0,97,0.11,,,0.27,weatherlink.com 1.10,2013-01-11 11:21:00,
2013-01-11 06:36:00,45.4,45.0,29.83,SSE,165,16.0,16.0,98,0.07,,,0.27,weatherlink.com 1.10,2013-01-11 11:36:00,
2013-01-11 06:51:00,46.9,46.0,29.82,SSE,166,11.0,18.0,98,0.05,,,0.28,weatherlink.com 1.10,2013-01-11 11:51:00,
2013-01-11 07:06:00,48.1,48.0,29.80,SE,137,17.0,18.0,98,0.02,,,0.28,weatherlink.com 1.10,2013-01-11 12:06:00,
2013-01-11 07:21:00,48.5,48.0,29.79,SE,143,17.0,24.0,98,0.02,,,0.29,weatherlink.com 1.10,2013-01-11 12:21:00,
2013-01-11 07:36:00,49.1,49.0,29.76,SSE,155,13.0,22.0,98,0.02,,,0.29,weatherlink.com 1.10,2013-01-11 12:36:00,
2013-01-11 07:51:00,49.4,49.0,29.80,South,169,9.0,20.0,97,0.01,,,0.29,weatherlink.com 1.10,2013-01-11 12:51:00,
2013-01-11 08:06:00,49.7,49.0,29.80,SSE,166,4.0,11.0,97,0.01,,,0.29,weatherlink.com 1.10,2013-01-11 13:06:00,
2013-01-11 08:21:00,49.8,49.0,29.81,SSE,160,5.0,11.0,97,0.00,,,0.29,weatherlink.com 1.10,2013-01-11 13:21:00,
2013-01-11 08:36:00,50.3,50.0,29.82,SSE,157,6.0,10.0,97,0.00,,,0.29,weatherlink.com 1.10,2013-01-11 13:36:00,
2013-01-11 08:51:00,50.3,49.0,29.82,SSE,165,4.0,9.0,96,0.00,,,0.29,weatherlink.com 1.10,2013-01-11 13:51:00,
2013-01-11 09:06:00,50.1,49.0,29.82,South,169,2.0,7.0,97,0.00,,,0.29,weatherlink.com 1.10,2013-01-11 14:06:00,
2013-01-11 09:21:00,50.4,50.0,29.82,South,170,4.0,8.0,97,0.00,,,0.29,weatherlink.com 1.10,2013-01-11 14:21:00,
2013-01-11 09:36:00,50.9,50.0,29.82,South,185,4.0,12.0,97,0.00,,,0.29,weatherlink.com 1.10,2013-01-11 14:36:00,
2013-01-11 09:51:00,51.3,51.0,29.82,SSW,198,4.0,10.0,97,0.00,,,0.29,weatherlink.com 1.10,2013-01-11 14:51:00,
2013-01-11 10:07:00,51.7,51.0,29.82,South,184,11.0,12.0,97,0.00,,,0.29,weatherlink.com 1.10,2013-01-11 15:07:00,
2013-01-11 10:22:00,52.2,51.0,29.82,SSE,163,0.0,9.0,97,0.00,,,0.29,weatherlink.com 1.10,2013-01-11 15:22:00,
2013-01-11 10:37:00,52.8,52.0,29.83,SSW,198,9.0,11.0,97,0.00,,,0.29,weatherlink.com 1.10,2013-01-11 15:37:00,
2013-01-11 10:52:00,53.0,52.0,29.83,West,263,5.0,14.0,96,0.00,,,0.29,weatherlink.com 1.10,2013-01-11 15:52:00,
2013-01-11 11:22:00,54.0,53.0,29.83,South,188,3.0,8.0,95,0.00,,,0.29,weatherlink.com 1.10,2013-01-11 16:22:00,
2013-01-11 11:37:00,54.3,53.0,29.82,South,178,3.0,12.0,94,0.00,,,0.29,weatherlink.com 1.10,2013-01-11 16:37:00,
2013-01-11 11:52:00,54.3,52.0,29.82,SW,232,5.0,12.0,93,0.00,,,0.29,weatherlink.com 1.10,2013-01-11 16:52:00,
2013-01-11 12:07:00,55.1,53.0,29.82,West,277,6.0,10.0,91,0.00,,,0.29,weatherlink.com 1.10,2013-01-11 17:07:00,
2013-01-11 12:22:00,56.3,53.0,29.81,WNW,290,6.0,10.0,87,0.00,,,0.29,weatherlink.com 1.10,2013-01-11 17:22:00,
2013-01-11 12:37:00,57.1,53.0,29.81,WNW,301,3.0,12.0,85,0.00,,,0.29,weatherlink.com 1.10,2013-01-11 17:37:00,
2013-01-11 12:52:00,57.0,52.0,29.80,WNW,286,1.0,11.0,84,0.00,,,0.29,weatherlink.com 1.10,2013-01-11 17:52:00,
2013-01-11 13:07:00,56.1,51.0,29.81,West,274,6.0,16.0,82,0.00,,,0.29,weatherlink.com 1.10,2013-01-11 18:07:00,
2013-01-11 13:22:00,55.1,50.0,29.81,SW,214,6.0,16.0,83,0.00,,,0.29,weatherlink.com 1.10,2013-01-11 18:22:00,
2013-01-11 13:37:00,55.1,51.0,29.81,West,271,5.0,9.0,86,0.00,,,0.29,weatherlink.com 1.10,2013-01-11 18:37:00,
2013-01-11 13:52:00,54.7,50.0,29.82,SSW,194,0.0,9.0,85,0.00,,,0.29,weatherlink.com 1.10,2013-01-11 18:52:00,
2013-01-11 14:07:00,53.7,50.0,29.82,WNW,285,4.0,12.0,86,0.00,,,0.29,weatherlink.com 1.10,2013-01-11 19:07:00,
2013-01-11 14:22:00,53.5,50.0,29.82,SSW,195,0.0,4.0,87,0.00,,,0.29,weatherlink.com 1.10,2013-01-11 19:22:00,
2013-01-11 14:37:00,54.6,50.0,29.83,WSW,245,2.0,9.0,85,0.00,,,0.29,weatherlink.com 1.10,2013-01-11 19:37:00,
2013-01-11 14:52:00,55.5,51.0,29.83,WSW,254,2.0,9.0,84,0.00,,,0.29,weatherlink.com 1.10,2013-01-11 19:52:00,
2013-01-11 15:07:00,55.1,50.0,29.84,SSW,205,2.0,8.0,84,0.00,,,0.29,weatherlink.com 1.10,2013-01-11 20:07:00,
2013-01-11 15:22:00,55.0,50.0,29.83,WSW,248,6.0,11.0,83,0.00,,,0.29,weatherlink.com 1.10,2013-01-11 20:22:00,
2013-01-11 15:37:00,54.4,50.0,29.84,WSW,242,4.0,10.0,85,0.00,,,0.29,weatherlink.com 1.10,2013-01-11 20:37:00,
2013-01-11 15:52:00,54.3,49.0,29.84,WSW,241,4.0,7.0,83,0.00,,,0.29,weatherlink.com 1.10,2013-01-11 20:52:00,
2013-01-11 16:07:00,54.7,49.0,29.84,SSW,200,6.0,10.0,80,0.00,,,0.29,weatherlink.com 1.10,2013-01-11 21:07:00,
2013-01-11 16:22:00,54.9,49.0,29.84,SW,218,3.0,10.0,79,0.00,,,0.29,weatherlink.com 1.10,2013-01-11 21:22:00,
2013-01-11 16:37:00,53.9,48.0,29.84,SW,231,3.0,7.0,81,0.00,,,0.29,weatherlink.com 1.10,2013-01-11 21:37:00,
2013-01-11 16:52:00,53.2,48.0,29.85,SSW,194,0.0,10.0,83,0.00,,,0.29,weatherlink.com 1.10,2013-01-11 21:52:00,
2013-01-11 17:07:00,53.1,48.0,29.85,West,265,4.0,13.0,84,0.00,,,0.29,weatherlink.com 1.10,2013-01-11 22:07:00,
2013-01-11 17:22:00,52.9,48.0,29.85,South,180,1.0,4.0,84,0.00,,,0.29,weatherlink.com 1.10,2013-01-11 22:22:00,
2013-01-11 17:37:00,52.4,48.0,29.85,SSW,194,0.0,6.0,85,0.00,,,0.29,weatherlink.com 1.10,2013-01-11 22:37:00,
2013-01-11 17:52:00,51.8,48.0,29.85,South,186,1.0,4.0,86,0.00,,,0.29,weatherlink.com 1.10,2013-01-11 22:52:00,
2013-01-11 18:07:00,50.8,47.0,29.86,South,186,0.0,2.0,87,0.00,,,0.29,weatherlink.com 1.10,2013-01-11 23:07:00,
2013-01-11 18:22:00,48.8,46.0,29.85,South,186,0.0,3.0,89,0.00,,,0.29,weatherlink.com 1.10,2013-01-11 23:22:00,
2013-01-11 18:37:00,48.5,46.0,29.85,SSE,160,3.0,5.0,92,0.00,,,0.29,weatherlink.com 1.10,2013-01-11 23:37:00,
2013-01-11 18:53:00,48.4,46.0,29.86,SSE,167,1.0,4.0,92,0.00,,,0.29,weatherlink.com 1.10,2013-01-11 23:53:00,
2013-01-11 19:07:00,48.2,46.0,29.85,SSE,168,4.0,7.0,92,0.00,,,0.29,weatherlink.com 1.10,2013-01-12 00:07:00,
2013-01-11 19:22:00,48.3,46.0,29.86,SSE,167,3.0,5.0,92,0.00,,,0.29,weatherlink.com 1.10,2013-01-12 00:22:00,
2013-01-11 19:37:00,48.0,46.0,29.85,SSE,164,6.0,8.0,93,0.00,,,0.29,weatherlink.com 1.10,2013-01-12 00:37:00,
2013-01-11 19:52:00,48.4,46.0,29.86,South,175,3.0,7.0,92,0.00,,,0.29,weatherlink.com 1.10,2013-01-12 00:52:00,
2013-01-11 20:07:00,48.6,47.0,29.84,SSE,162,6.0,8.0,93,0.00,,,0.29,weatherlink.com 1.10,2013-01-12 01:07:00,
2013-01-11 20:22:00,48.9,47.0,29.84,SSE,167,8.0,8.0,92,0.00,,,0.29,weatherlink.com 1.10,2013-01-12 01:22:00,
2013-01-11 20:37:00,48.8,47.0,29.84,SSE,154,2.0,8.0,92,0.00,,,0.29,weatherlink.com 1.10,2013-01-12 01:37:00,
2013-01-11 20:52:00,48.3,46.0,29.84,SSE,157,6.0,6.0,92,0.00,,,0.29,weatherlink.com 1.10,2013-01-12 01:52:00,
2013-01-11 21:07:00,48.3,46.0,29.84,SSE,158,1.0,7.0,93,0.00,,,0.29,weatherlink.com 1.10,2013-01-12 02:07:00,
2013-01-11 21:22:00,48.3,46.0,29.84,SSE,161,7.0,7.0,93,0.00,,,0.29,weatherlink.com 1.10,2013-01-12 02:22:00,
2013-01-11 21:37:00,48.6,47.0,29.83,SSE,159,6.0,9.0,93,0.00,,,0.29,weatherlink.com 1.10,2013-01-12 02:37:00,
2013-01-11 21:52:00,48.7,47.0,29.83,SSE,149,5.0,8.0,93,0.00,,,0.29,weatherlink.com 1.10,2013-01-12 02:52:00,
2013-01-11 22:07:00,48.7,47.0,29.83,SSE,158,5.0,8.0,93,0.00,,,0.29,weatherlink.com 1.10,2013-01-12 03:07:00,
2013-01-11 22:22:00,48.3,46.0,29.83,SSE,157,6.0,7.0,93,0.00,,,0.29,weatherlink.com 1.10,2013-01-12 03:22:00,
2013-01-11 22:37:00,48.7,47.0,29.84,South,173,2.0,5.0,93,0.00,,,0.29,weatherlink.com 1.10,2013-01-12 03:37:00,
2013-01-11 22:52:00,49.0,47.0,29.84,South,190,0.0,5.0,93,0.00,,,0.29,weatherlink.com 1.10,2013-01-12 03:52:00,
2013-01-11 23:07:00,50.1,48.0,29.83,SSW,205,0.0,8.0,92,0.00,,,0.29,weatherlink.com 1.10,2013-01-12 04:07:00,
2013-01-11 23:22:00,50.5,48.0,29.83,SSW,194,4.0,7.0,91,0.00,,,0.29,weatherlink.com 1.10,2013-01-12 04:22:00,
2013-01-11 23:37:00,50.8,48.0,29.83,SSW,211,1.0,8.0,90,0.00,,,0.29,weatherlink.com 1.10,2013-01-12 04:37:00,
2013-01-11 23:52:00,50.9,48.0,29.82,WSW,257,4.0,12.0,90,0.00,,,0.29,weatherlink.com 1.10,2013-01-12 04:52:00,